Weather History for KHFD - October, 2013

Change the Weather History Date:

Wednesday, October 16, 2013

  Actual Average (WUND) Record (WUND)
Temperature  
Mean Temperature 56 °F -  
Max Temperature 62 °F - - (-1)
Min Temperature 50 °F - - (-1)
Degree Days  
Heating Degree Days 10    
Growing Degree Days 6 (Base 50)    
Moisture  
Dew Point 50 °F    
Average Humidity 82    
Maximum Humidity 94    
Minimum Humidity 64    
Precipitation  
Precipitation 0.00 in - - ()
Sea Level Pressure  
Sea Level Pressure 30.04 in    
Wind  
Wind Speed 1 mph (NNE)    
Max Wind Speed 5 mph    
Max Gust Speed -    
Visibility 10 miles    
Events      
Averages and records for this station are not official NWS values.
T = Trace of Precipitation, MM = Missing Value Source: NWS Daily Summary

Daily Weather History Graph

Daily Weather History Graph

Search for Another Location

Airport or City:

Trip Planner

Search our weather history database for the weather conditions in past years. The results will help you decide how hot, cold, wet, or windy it might be!

Date:

Astronomy

Oct. 16, 2013 Rise Set
Actual Time 7:04 AM EDT 6:07 PM EDT
Civil Twilight 6:36 AM EDT 6:35 PM EDT
Nautical Twilight 6:03 AM EDT 7:07 PM EDT
Astronomical Twilight 5:31 AM EDT 7:39 PM EDT
Moon 4:46 PM EDT (10/16) 4:27 AM EDT (10/16)
Length of Visible Light 11h 59m
Length of Day
11h 03m
Waxing Gibbous, 94% of the Moon is Illuminated
Oct 16
Waxing Gibbous
Oct 18
Full
Oct 26
Last Quarter
Nov 3
New
Nov 10
First Quarter

Hourly Weather History & Observations

Time (EDT) Temp. Dew Point Humidity Pressure Visibility Wind Dir Wind Speed Gust Speed Precip Events Conditions
12:53 AM 50.0 °F 48.0 °F 93% 30.14 in 10.0 mi Calm Calm - N/A   Clear
1:53 AM 50.0 °F 46.9 °F 89% 30.13 in 10.0 mi Calm Calm - N/A   Clear
2:53 AM 50.0 °F 46.9 °F 89% 30.14 in 10.0 mi Calm Calm - N/A   Clear
3:53 AM 52.0 °F 48.0 °F 86% 30.14 in 10.0 mi Calm Calm - N/A   Overcast
4:53 AM 50.0 °F 46.9 °F 89% 30.11 in 10.0 mi Calm Calm - N/A   Scattered Clouds
5:53 AM 52.0 °F 48.0 °F 86% 30.12 in 10.0 mi Calm Calm - N/A   Mostly Cloudy
6:06 AM 51.8 °F 48.2 °F 88% 30.12 in 10.0 mi North 4.6 mph - N/A   Overcast
6:53 AM 51.1 °F 48.0 °F 89% 30.12 in 10.0 mi North 4.6 mph - N/A   Overcast
7:53 AM 52.0 °F 48.0 °F 86% 30.11 in 10.0 mi East 3.5 mph - N/A   Overcast
8:42 AM 53.6 °F 48.2 °F 82% 30.10 in 10.0 mi North 4.6 mph - N/A   Overcast
8:53 AM 54.0 °F 48.9 °F 83% 30.10 in 10.0 mi North 3.5 mph - N/A   Overcast
9:18 AM 53.6 °F 48.2 °F 82% 30.09 in 10.0 mi North 4.6 mph - N/A   Overcast
9:53 AM 55.9 °F 48.9 °F 77% 30.10 in 10.0 mi North 4.6 mph - N/A   Overcast
10:53 AM 57.0 °F 48.9 °F 74% 30.08 in 10.0 mi NNW 3.5 mph - N/A   Clear
11:53 AM 59.0 °F 46.9 °F 64% 30.07 in 10.0 mi NNE 3.5 mph - N/A   Overcast
12:53 PM 60.1 °F 48.9 °F 67% 30.04 in 10.0 mi Calm Calm - N/A   Overcast
1:53 PM 61.0 °F 48.9 °F 64% 30.01 in 10.0 mi Variable 3.5 mph - N/A   Overcast
2:53 PM 61.0 °F 50.0 °F 67% 29.99 in 10.0 mi ENE 3.5 mph - N/A   Overcast
3:53 PM 61.0 °F 50.0 °F 67% 29.98 in 10.0 mi NE 3.5 mph - N/A   Partly Cloudy
4:53 PM 61.0 °F 51.1 °F 70% 29.98 in 10.0 mi NNE 3.5 mph - N/A   Mostly Cloudy
5:53 PM 60.1 °F 50.0 °F 69% 29.98 in 10.0 mi NE 3.5 mph - N/A   Overcast
6:53 PM 57.9 °F 53.1 °F 84% 29.97 in 10.0 mi Calm Calm - N/A   Overcast
7:53 PM 57.9 °F 52.0 °F 81% 29.96 in 10.0 mi Calm Calm - N/A   Clear
8:53 PM 57.0 °F 52.0 °F 83% 29.95 in 10.0 mi Calm Calm - N/A   Clear
9:53 PM 55.0 °F 52.0 °F 89% 29.95 in 10.0 mi Calm Calm - N/A   Partly Cloudy
10:09 PM 55.4 °F 51.8 °F 88% 29.95 in 10.0 mi Calm Calm - N/A   Mostly Cloudy
10:53 PM 55.0 °F 53.1 °F 93% 29.94 in 10.0 mi Calm Calm - N/A   Overcast
11:20 PM 55.4 °F 53.6 °F 94% 29.93 in 10.0 mi Calm Calm - N/A   Scattered Clouds
11:51 PM 55.4 °F 51.8 °F 88% 29.92 in 10.0 mi Calm Calm - N/A   Mostly Cloudy
11:53 PM 55.9 °F 52.0 °F 87% 29.92 in 10.0 mi Calm Calm - N/A   Mostly Cloudy